Bookmark and Share
Track history (hours):
 

Mudcat

More information available from US FCC via Universal Licensing System and Coast Guard Vessel Documentation Center.

Last reported at 2014-Apr-17 05:14 UTC. Time now 2014-Apr-18 13:20 UTC.
Position N 47°39' W 122°20'.

Length 22 m; draft 2 m.

Type: Tug. MMSI: 366969750.

NotesDate/timePositionNaut miles runAvg speedWind from/ knotsBaromVisibWave heightAir tempDewpointWater temp
2014-Apr-17 05:14N 47°39' W 122°20'0 0.0
2014-Apr-17 05:14N 47°39' W 122°20'2 1.9
2014-Apr-17 04:23N 47°39' W 122°18'1 1.2
2014-Apr-17 03:32N 47°39' W 122°17'2 2.1
2014-Apr-17 02:33N 47°39' W 122°20'1 2.3
2014-Apr-17 02:18N 47°39' W 122°20'2 2.2
2014-Apr-17 01:33N 47°40' W 122°22'0 2.6
2014-Apr-17 01:28N 47°40' W 122°23'1 0.8
2014-Apr-17 00:34N 47°40' W 122°24'0 0.0
2014-Apr-17 00:33N 47°40' W 122°24'1 0.8
2014-Apr-16 23:34N 47°40' W 122°25'0 4.3
2014-Apr-16 23:33N 47°40' W 122°25'1 0.8
2014-Apr-16 22:33N 47°40' W 122°26'0 0.0
2014-Apr-16 22:29N 47°40' W 122°26'0 0.0
2014-Apr-16 21:33N 47°40' W 122°26'0 0.0
2014-Apr-16 21:33N 47°40' W 122°26'0 0.0
2014-Apr-16 20:33N 47°40' W 122°26'0 0.0
2014-Apr-16 20:33N 47°40' W 122°26'0 0.0
2014-Apr-16 19:33N 47°40' W 122°26'0 0.0
2014-Apr-16 19:33N 47°40' W 122°26'0 0.0
2014-Apr-16 18:33N 47°40' W 122°26'0 2.2
2014-Apr-16 18:33N 47°40' W 122°26'0 0.5
2014-Apr-16 17:33N 47°41' W 122°26'0 3.6
2014-Apr-16 17:33N 47°41' W 122°26'2 1.5
2014-Apr-16 16:33N 47°40' W 122°24'0 0.0
2014-Apr-16 16:33N 47°40' W 122°24'5 4.8
2014-Apr-16 15:33N 47°39' W 122°17'3 4.5
2014-Apr-16 14:47N 47°42' W 122°15'2 7.9
2014-Apr-16 14:33N 47°44' W 122°16'2 1.7
2014-Apr-16 13:32N 47°45' W 122°15'6 6.5
2014-Apr-16 12:33N 47°39' W 122°16'1 7.1
2014-Apr-16 12:27N 47°39' W 122°17'  
2014-Apr-14 01:53N 47°39' W 122°20'2 4.2
2014-Apr-14 01:18N 47°39' W 122°17'5 1.7
2014-Apr-13 22:33N 47°40' W 122°24'0 0.4
2014-Apr-13 21:33N 47°40' W 122°24'0 0.0
2014-Apr-13 20:33N 47°40' W 122°24'1 0.8
2014-Apr-13 19:33N 47°41' W 122°25'1 0.7
2014-Apr-13 18:33N 47°40' W 122°26'0 0.0
2014-Apr-13 17:33N 47°40' W 122°26'0 0.1
2014-Apr-13 16:33N 47°40' W 122°26'1 0.7
2014-Apr-13 15:33N 47°41' W 122°26'1 0.6
2014-Apr-13 14:33N 47°41' W 122°25'1 1.2
2014-Apr-13 13:32N 47°40' W 122°24'3 2.6
2014-Apr-13 12:33N 47°39' W 122°20'0 0.0
2014-Apr-12 01:49N 47°39' W 122°20'2 4.3
2014-Apr-12 01:18N 47°39' W 122°17'0 0.0
2014-Apr-12 01:18N 47°39' W 122°17'1 1.2
2014-Apr-12 00:31N 47°39' W 122°16'1 2.2
2014-Apr-12 00:13N 47°39' W 122°17'1 1.4
2014-Apr-11 23:28N 47°39' W 122°15'0 0.0
2014-Apr-11 23:28N 47°39' W 122°15'0 0.5
2014-Apr-11 22:33N 47°39' W 122°16'1 1.5
2014-Apr-11 22:09N 47°39' W 122°17'0 0.1
2014-Apr-11 21:34N 47°39' W 122°17'0 0.8
2014-Apr-11 21:33N 47°39' W 122°17'0 0.0
2014-Apr-11 20:33N 47°39' W 122°17'0 0.0
2014-Apr-11 20:29N 47°39' W 122°17'2 2.5
2014-Apr-11 19:33N 47°39' W 122°20'0 0.0
2014-Apr-11 19:33N 47°39' W 122°20'  

Dump ship's entire track history

sailing weather and tide predictions

Mudcat — WCY8255 — position and weather